Regional Weather Roundup
Issued by NWS New Orleans/Baton Rouge, LA

Home | Current Version | Previous Version | Text Only | Print | Product List | Glossary On
Versions: 1 2 3 4 5 6 7 8 9 10 11 12 13 14 15 16 17 18 19 20 21 22 23 24 25 26 27 28 29 30 31 32 33 34 35 36 37 38 39 40 41 42 43 44 45 46 47 48 49 50
000
ASUS44 KLIX 231301
RWRLIX
NEW ORLEANS REGIONAL WEATHER ROUNDUP
NATIONAL WEATHER SERVICE NEW ORLEANS LA
800 AM CDT TUE SEP 23 2014

NOTE: "FAIR" INDICATES FEW OR NO CLOUDS BELOW 12,000 FEET WITH NO
      SIGNIFICANT WEATHER AND/OR OBSTRUCTIONS TO VISIBILITY.
      SKY/WX - SKY CONDITION AND SIGNIFICANT WEATHER.
      TMP - AIR TEMPERATURE.     DP    - DEWPOINT TEMPERATURE.
      RH  - RELATIVE HUMIDITY.   PRES  - PRESSURE.
      HI  - HEAT INDEX.          WCI   - WIND CHILL INDEX.

*  THESE STATIONS ARE NOT NWS OR FAA STATIONS AND ARE NOT UNDER
   NWS QUALITY CONTROL.

LAZ038-040-048-061>063-065>067-069-231400-
SOUTHEAST LOUISIANA

CITY           SKY/WX    TMP DP  RH WIND       PRES   REMARKS
N.O. AUDUBON     N/A     70  57  62 MISG        N/A
N.O. INTL ARPT MOSUNNY   72  57  59 NE13G23   30.08R
N.O. LAKEFRONT SUNNY     70  58  65 NE22      30.09R
N.O. DOWNTOWN*   N/A     68  54  60 NE13      30.09R
SLIDELL        SUNNY     62  54  74 N6        30.10R
BATON ROUGE    SUNNY     62  54  74 NE7       30.11R
BOOTHVILLE     SUNNY     78  65  63 NE14G21   30.05R
BELLE CHASSE   MOSUNNY   69  57  65 NE12      30.08R
BOGALUSA*        N/A     61  55  80 CALM      30.14R
GALLIANO*      NOT AVBL
NEW ROADS*       N/A     64  53  67 NE8       30.12R
GONZALES*        N/A     62  58  84 N5        30.10R
HAMMOND*       NOT AVBL
HOUMA*         SUNNY     66  46  48 NE9       30.07R
PORT FOURCHON* SUNNY     77  68  73 NE15G23   30.08R

$$

MSZ070-080>082-231400-
SOUTHERN MISSISSIPPI

CITY           SKY/WX    TMP DP  RH WIND       PRES   REMARKS
MCCOMB         SUNNY     61  52  72 NE6       30.13S
GULFPORT       SUNNY     64  54  69 N7        30.09S
BILOXI         SUNNY     65  54  68 NE13      30.10R
PASCAGOULA     SUNNY     61  55  81 NE7       30.10R
STENNIS ARPT*  SUNNY     63  52  67 NE9       30.10R

$$

COASTAL OBSERVATIONS
LAKE AND NEARSHORE STATIONS

STATION/POSITION TIME  TEMP    WIND        PRES    WAVE
                       AIR SEA DIR/SP/G            HT/PER
                 (UTC) (F)     (DEG/KT/KT) (MB)    (FT/S)
PASCAGOULA       1200   63      10/  7/ 11 1018.3
WAVELAND YACHT   1200   65      40/ 15/ 18 1018.2
GRAND ISLE       1200   76 81   60/ 14/ 19 1017.6
SOUTHWEST PASS   1200   81 88   40/ 14/ 16 1017.1
NEW CANAL        1200   72 78   60/ 20/ 23 1018.4
SHELL BEACH      1200   73 75   50/ 17/ 20 1018.1

OFFSHORE STATIONS

STATION/POSITION TIME  TEMP    WIND        PRES    WAVE
                       AIR SEA DIR/SP/G            HT/PER
                 (UTC) (F)     (DEG/KT/KT) (MB)    (FT/S)
64 S DAUPHIN ISL 1220   78 83   60/ 16/ 19 1017.5    5/ 6

$$




USA.gov is the U.S. government's official web portal to all federal, state and local government web resources and services.